Wind_Speed
34 35 36 38 38 35 34 28 25 24 26 27 26 25 25 24 23 24 26 24 21 20 21 21 21 23 26 30 34 38 39 36 33 31 29 28 27 27 27 29 30 31 35
34 36 37 38 37 36 33 28 27 27 26 23 21 20 20 19 19 21 21 18 16 17 17 17 19 22 26 28 32 36 38 37 36 35 33 29 28 26 26 29 32 34 35
36 36 37 38 36 35 31 28 27 25 22 21 21 19 17 17 18 19 18 17 17 17 16 16 18 22 26 30 33 36 37 37 36 36 34 32 29 29 27 27 30 33 35
38 37 37 37 33 30 28 28 30 28 24 24 23 21 20 21 21 21 20 19 17 16 17 17 19 23 25 29 32 35 35 35 35 36 35 34 31 31 29 28 28 29 31
41 38 34 31 29 29 32 34 34 30 27 26 27 26 25 25 26 27 26 24 22 21 20 21 22 24 26 29 31 30 32 34 34 34 35 34 33 32 32 30 30 31 33
37 33 30 28 28 30 32 33 33 32 29 28 29 28 30 31 31 32 32 30 27 24 21 21 23 23 26 30 32 32 32 33 32 31 32 34 35 34 34 34 32 31 33
29 30 29 23 26 30 32 33 33 33 32 32 31 30 32 34 34 35 36 35 32 27 23 21 23 25 27 30 33 33 32 31 29 29 30 32 34 36 37 36 35 36 36
28 30 32 31 34 36 36 35 36 35 37 38 36 35 35 37 35 34 35 34 34 31 25 23 24 26 28 30 33 32 30 29 29 28 30 31 34 37 37 37 37 37 37
31 32 32 35 37 38 38 39 39 40 44 44 43 42 41 40 38 35 33 32 32 30 25 24 26 26 26 29 31 31 29 28 27 28 30 31 33 36 36 37 38 37 35
37 38 38 37 38 41 44 45 46 49 51 51 50 48 45 43 40 37 37 36 32 29 25 23 24 24 25 28 30 31 31 28 26 25 27 30 31 34 34 34 35 35 33
41 42 44 44 43 45 48 50 52 54 55 56 56 55 53 50 44 39 36 35 33 28 27 23 23 24 26 28 29 31 31 30 26 24 25 27 28 30 31 32 32 33 34
42 44 46 48 49 50 52 55 58 60 61 61 61 60 61 58 52 46 39 38 33 26 27 32 30 30 30 29 28 29 31 31 27 23 24 24 24 26 29 30 30 31 31
46 47 50 52 53 55 55 57 59 62 65 66 65 66 65 64 61 54 46 40 35 33 35 39 37 35 33 31 29 27 29 28 28 26 24 22 21 22 23 24 25 27 29
49 51 53 54 58 59 57 56 61 68 72 71 75 77 74 71 65 59 54 45 37 39 42 43 41 38 34 30 27 27 26 25 26 26 24 21 18 15 14 15 19 25 30
51 55 60 63 68 64 64 63 67 65 62 67 72 76 62 60 70 68 63 50 51 54 50 46 44 42 38 33 29 29 27 26 27 25 25 21 14 10 13 14 16 22 27
62 65 68 71 74 76 76 75 76 77 70 69 73 64 61 65 71 70 67 66 77 77 65 50 47 45 41 37 35 31 30 28 28 27 24 22 16 17 14 16 18 21 25
73 77 80 82 84 85 85 83 81 88 88 87 85 86 86 80 76 78 79 79 78 74 62 50 46 43 41 40 39 36 32 29 28 27 23 22 18 17 14 14 17 21 24
82 83 84 84 83 80 77 73 69 68 69 67 64 71 80 87 84 80 83 81 80 72 62 51 51 50 46 41 40 38 35 32 28 28 23 20 18 15 16 14 16 21 25
79 75 70 65 61 55 46 40 36 34 34 37 39 39 43 51 60 67 70 74 78 75 65 57 49 51 52 48 44 41 38 36 32 30 26 20 18 16 17 18 18 17 18
59 52 45 41 38 38 41 44 41 39 37 37 36 37 37 36 37 41 50 57 64 68 67 64 53 49 50 50 47 44 40 39 34 31 29 24 21 18 16 16 16 18 20
38 36 38 40 43 46 48 49 50 50 47 45 46 46 39 34 35 35 37 41 48 58 61 60 58 56 51 47 45 44 41 38 35 32 31 28 25 21 19 19 19 19 23
37 40 43 47 51 52 51 51 51 50 49 48 49 48 43 37 35 33 31 31 33 41 49 54 58 55 46 44 45 45 40 35 34 33 31 29 26 23 23 24 24 25 26
44 47 48 48 49 51 52 50 48 49 52 52 49 48 48 42 38 36 31 26 24 27 38 50 61 56 48 51 55 49 41 36 34 33 32 28 25 25 26 26 27 29 29
48 48 47 48 48 49 52 55 53 53 54 52 51 51 48 48 45 40 33 26 23 25 25 33 55 61 59 49 51 47 42 38 34 33 31 25 24 25 27 28 26 24 22
49 51 54 54 51 51 52 52 54 56 58 53 52 54 54 54 47 43 35 26 24 26 25 21 40 63 66 53 50 43 38 36 34 33 29 25 25 27 29 27 23 21 21
52 55 57 54 49 48 49 49 52 56 53 49 48 48 48 45 45 45 41 30 28 28 23 19 26 39 57 57 51 42 39 38 35 32 28 27 27 26 27 24 22 22 22
Wind_Direction
268 273 280 286 292 298 304 300 290 288 286 285 283 284 283 282 283 282 281 283 288 295 298 300 305 305 302 296 290 286 282 280 277 276 273 270 267 264 262 259 254 248 247
269 273 282 288 294 299 301 293 291 293 290 284 280 279 281 281 279 275 274 277 291 305 307 311 319 322 317 307 294 286 281 276 271 269 266 266 265 264 261 256 252 249 248
273 277 283 287 292 296 294 287 287 292 286 279 277 275 275 278 282 281 279 280 291 303 314 316 325 327 326 321 308 293 285 279 274 270 267 263 262 262 262 261 257 252 252
279 280 283 286 292 295 294 293 293 292 285 280 280 281 282 283 282 280 277 278 286 291 294 304 321 328 328 328 319 295 288 283 276 270 268 266 262 259 261 262 260 257 255
277 277 277 280 286 292 296 298 297 290 283 282 287 286 284 281 279 278 277 276 280 285 293 296 306 326 332 331 329 309 291 285 278 272 267 266 265 261 257 260 264 261 258
270 269 267 277 286 291 294 295 294 290 286 287 289 287 285 284 283 283 281 279 282 287 299 309 307 319 330 334 330 319 299 287 281 275 268 265 264 263 258 255 259 263 260
275 267 262 277 283 284 286 288 289 290 290 288 284 283 284 285 284 281 277 274 274 279 289 299 304 310 319 331 333 324 308 290 282 277 270 267 265 263 261 259 257 260 263
281 283 285 289 285 283 283 282 283 286 286 285 282 280 280 281 282 282 277 272 269 271 278 291 301 307 314 322 330 327 314 302 288 282 273 267 267 265 262 261 260 262 265
284 286 283 279 277 279 283 283 281 284 284 282 279 279 279 281 283 281 274 273 275 277 284 294 300 302 308 315 321 329 318 309 303 287 276 268 267 265 263 261 260 263 264
283 283 283 281 277 276 279 283 281 279 279 280 279 278 278 277 277 278 275 272 274 280 285 287 289 294 302 310 314 322 324 313 307 298 284 276 271 266 262 260 259 259 260
279 278 276 278 278 275 275 275 275 275 276 277 278 277 277 278 277 274 270 268 270 275 279 282 288 294 304 310 311 314 321 319 312 306 297 281 270 264 259 258 259 259 258
276 274 274 274 275 275 274 273 272 272 269 268 269 270 271 274 274 271 266 265 266 272 288 295 291 291 295 303 308 309 314 318 316 311 303 293 277 267 260 257 257 259 260
284 282 279 277 277 277 277 278 277 274 271 267 265 265 268 271 271 268 267 264 258 267 284 295 292 291 294 296 297 303 308 312 314 311 308 304 293 279 267 255 251 250 247
289 289 289 283 281 280 275 283 279 273 265 263 262 261 262 265 264 261 263 252 258 273 283 288 287 287 290 295 293 297 301 303 307 309 306 309 300 277 265 255 244 240 235
290 289 289 286 281 279 275 282 282 269 258 255 258 255 251 261 258 254 252 247 273 281 282 282 278 278 283 288 286 287 290 296 299 303 304 307 292 284 263 261 250 243 231
292 288 285 281 279 279 279 274 272 264 268 276 276 269 269 263 259 253 251 259 280 283 280 276 272 270 272 276 280 278 276 285 289 295 299 298 290 297 281 263 259 254 252
293 291 289 287 286 285 285 284 280 279 277 275 275 274 271 265 266 265 263 269 277 278 276 268 264 265 267 271 275 277 269 272 278 283 290 291 293 285 270 254 253 249 238
295 292 291 290 290 291 292 293 292 290 289 288 285 279 273 272 271 267 264 265 266 268 265 261 262 262 262 265 269 272 266 263 266 270 276 280 278 266 250 248 251 245 239
299 298 296 295 296 296 295 295 298 303 308 309 308 303 293 283 275 268 263 261 262 262 260 257 257 252 254 256 260 261 260 261 258 258 261 265 263 253 248 250 254 250 247
303 302 303 304 305 304 303 300 295 295 299 300 302 305 308 307 297 278 263 254 248 246 246 245 236 239 243 247 248 251 252 252 251 250 251 253 250 242 238 236 233 233 230
312 310 310 309 305 302 301 298 294 291 288 288 288 288 291 294 296 292 281 264 248 239 234 229 216 222 237 233 235 243 243 241 242 243 244 245 242 231 225 221 223 220 220
313 310 307 306 303 301 299 298 295 290 287 290 288 284 283 284 287 290 291 276 256 245 237 225 208 205 206 225 231 232 232 231 235 237 239 238 235 225 222 219 222 220 214
313 309 307 307 306 302 299 299 294 290 288 287 282 275 273 273 273 276 282 275 258 253 243 228 214 206 195 215 218 218 221 224 231 235 235 234 226 218 215 216 221 216 209
316 311 309 308 304 299 296 295 292 290 290 285 277 270 270 270 264 262 266 270 255 252 248 219 212 209 197 197 206 212 217 222 224 230 230 225 215 210 210 213 211 203 196
317 312 312 312 308 304 303 298 295 293 291 288 283 277 271 267 254 246 247 257 249 244 251 229 206 212 209 190 196 207 214 216 215 216 215 213 211 210 206 198 188 189 192
318 315 314 313 311 307 304 300 297 298 293 283 281 279 273 253 236 233 237 245 249 241 244 234 211 215 206 188 192 202 205 202 203 203 200 201 208 209 193 183 188 188 190
Height
5879 5877 5874 5871 5869 5866 5863 5858 5855 5852 5850 5848 5846 5844 5843 5840 5838 5836 5835 5833 5832 5831 5829 5827 5825 5822 5819 5816 5813 5810 5809 5809 5808 5807 5808 5810 5810 5811 5811 5809 5808 5810 5813
5872 5869 5866 5864 5861 5858 5855 5852 5850 5847 5844 5842 5840 5838 5836 5835 5834 5832 5830 5828 5827 5825 5823 5820 5817 5814 5811 5808 5805 5802 5800 5800 5800 5800 5800 5802 5803 5805 5804 5802 5801 5802 5803
5863 5861 5859 5855 5852 5850 5847 5845 5844 5841 5839 5836 5833 5832 5831 5830 5828 5826 5825 5823 5821 5819 5816 5813 5811 5807 5804 5800 5797 5793 5790 5789 5790 5790 5791 5793 5795 5796 5796 5795 5795 5795 5795
5853 5851 5849 5846 5844 5842 5840 5838 5836 5834 5832 5830 5828 5827 5826 5824 5822 5820 5819 5817 5815 5812 5810 5807 5805 5802 5799 5795 5791 5785 5782 5780 5781 5780 5782 5784 5785 5786 5787 5788 5788 5788 5789
5844 5842 5839 5838 5836 5834 5831 5830 5828 5826 5825 5824 5823 5821 5820 5818 5816 5815 5813 5810 5808 5805 5803 5800 5798 5795 5791 5787 5783 5778 5774 5771 5771 5771 5772 5774 5776 5777 5778 5780 5780 5781 5782
5835 5833 5831 5831 5830 5827 5823 5822 5820 5818 5818 5817 5817 5815 5813 5811 5810 5808 5806 5804 5802 5799 5796 5793 5790 5788 5784 5781 5776 5770 5766 5764 5763 5763 5763 5764 5766 5768 5769 5771 5773 5774 5774
5832 5829 5823 5823 5823 5819 5816 5815 5813 5811 5809 5809 5809 5808 5806 5804 5802 5800 5798 5796 5794 5792 5789 5786 5784 5780 5777 5774 5769 5764 5759 5757 5756 5755 5755 5755 5756 5758 5759 5762 5764 5764 5765
5826 5822 5819 5816 5816 5812 5809 5807 5805 5804 5802 5800 5799 5799 5798 5795 5793 5791 5788 5787 5786 5784 5781 5778 5775 5772 5769 5767 5763 5758 5754 5751 5749 5747 5745 5745 5745 5747 5749 5751 5753 5754 5755
5820 5817 5815 5813 5809 5805 5802 5799 5797 5795 5793 5790 5787 5786 5786 5784 5781 5780 5779 5777 5776 5774 5771 5768 5767 5765 5762 5760 5756 5753 5749 5744 5740 5738 5737 5736 5736 5737 5739 5741 5743 5745 5746
5812 5809 5805 5802 5800 5797 5793 5789 5786 5783 5781 5778 5775 5774 5773 5773 5771 5770 5769 5768 5767 5764 5762 5760 5758 5756 5753 5751 5749 5746 5742 5737 5735 5732 5729 5727 5726 5727 5729 5731 5733 5735 5737
5803 5799 5795 5790 5787 5784 5781 5777 5775 5771 5767 5763 5761 5759 5759 5759 5760 5759 5758 5758 5757 5755 5754 5751 5749 5747 5745 5743 5740 5738 5736 5731 5728 5725 5721 5718 5717 5717 5719 5721 5724 5726 5729
5792 5787 5783 5778 5774 5770 5766 5763 5759 5756 5751 5747 5745 5743 5741 5741 5743 5746 5745 5745 5744 5742 5742 5743 5740 5738 5736 5735 5733 5731 5730 5726 5721 5718 5714 5712 5710 5708 5709 5710 5713 5716 5718
5778 5773 5769 5764 5761 5756 5751 5746 5741 5737 5734 5730 5726 5725 5724 5723 5724 5727 5729 5729 5729 5728 5729 5730 5730 5729 5728 5726 5725 5723 5722 5720 5716 5711 5708 5705 5702 5701 5700 5701 5703 5705 5707
5762 5757 5752 5747 5742 5737 5733 5727 5723 5718 5714 5712 5709 5707 5707 5707 5706 5707 5710 5713 5714 5715 5715 5717 5718 5718 5718 5716 5715 5714 5714 5713 5711 5706 5703 5700 5697 5695 5696 5696 5697 5697 5697
5746 5741 5735 5728 5722 5715 5713 5709 5704 5699 5696 5692 5688 5686 5687 5688 5688 5688 5689 5692 5696 5699 5701 5703 5706 5706 5706 5706 5705 5705 5705 5705 5705 5702 5698 5695 5693 5692 5693 5692 5693 5693 5693
5730 5723 5716 5709 5702 5695 5688 5683 5681 5677 5673 5672 5670 5665 5665 5668 5667 5665 5668 5669 5673 5680 5683 5687 5690 5692 5694 5696 5696 5695 5695 5696 5697 5696 5693 5691 5689 5688 5688 5689 5689 5690 5689
5707 5698 5689 5680 5672 5665 5658 5653 5648 5644 5640 5641 5643 5640 5641 5642 5642 5641 5643 5645 5649 5657 5663 5669 5674 5677 5678 5682 5685 5685 5684 5686 5689 5689 5687 5686 5684 5682 5683 5684 5685 5686 5686
5679 5669 5659 5650 5644 5639 5633 5628 5623 5617 5613 5610 5609 5607 5607 5607 5608 5612 5617 5621 5627 5634 5640 5647 5655 5661 5664 5667 5672 5675 5675 5675 5679 5682 5680 5680 5679 5677 5678 5680 5681 5682 5683
5652 5642 5633 5625 5621 5617 5612 5610 5607 5602 5598 5594 5589 5584 5581 5579 5578 5579 5581 5587 5596 5603 5613 5625 5637 5640 5648 5652 5656 5661 5663 5665 5669 5674 5674 5673 5673 5672 5672 5675 5677 5677 5678
5630 5622 5616 5610 5606 5602 5599 5596 5592 5589 5586 5582 5578 5575 5573 5569 5563 5558 5556 5558 5564 5574 5585 5599 5616 5625 5625 5633 5640 5645 5649 5654 5658 5663 5665 5666 5667 5667 5667 5669 5671 5674 5676
5616 5610 5605 5600 5595 5590 5586 5581 5576 5573 5570 5567 5565 5563 5561 5559 5555 5550 5544 5542 5544 5549 5557 5569 5585 5603 5609 5616 5622 5630 5636 5642 5647 5651 5655 5657 5659 5661 5663 5665 5667 5670 5673
5605 5600 5595 5589 5582 5576 5570 5565 5560 5556 5553 5551 5550 5548 5546 5545 5544 5542 5537 5533 5532 5536 5541 5550 5561 5577 5589 5596 5602 5615 5624 5630 5637 5641 5646 5649 5651 5654 5657 5660 5663 5666 5669
5595 5588 5581 5575 5568 5559 5551 5546 5542 5538 5534 5531 5529 5529 5529 5530 5532 5531 5532 5528 5526 5526 5528 5535 5542 5550 5565 5583 5588 5598 5609 5618 5625 5630 5636 5639 5643 5647 5651 5654 5657 5661 5665
5584 5575 5568 5561 5553 5543 5534 5528 5523 5517 5512 5510 5509 5508 5510 5512 5516 5519 5522 5522 5521 5522 5523 5524 5532 5539 5553 5568 5577 5588 5598 5607 5614 5621 5626 5631 5637 5641 5645 5648 5651 5656 5662
5571 5561 5552 5543 5534 5525 5518 5511 5503 5496 5491 5488 5487 5485 5487 5491 5498 5505 5511 5514 5515 5514 5516 5520 5527 5533 5544 5559 5570 5581 5590 5597 5605 5612 5619 5625 5632 5636 5639 5643 5649 5655 5660
5557 5546 5535 5525 5516 5508 5501 5493 5485 5477 5470 5466 5465 5463 5462 5467 5477 5488 5498 5505 5506 5508 5510 5514 5521 5528 5541 5556 5566 5573 5582 5590 5599 5608 5614 5621 5627 5633 5636 5642 5648 5653 5658